Location: Northam
(31.6525°S, 116.6655°E)
Time: 14:24:13
(UTC+08:00)

Envisat - Pass Details

Date: 15 May 2021
Orbit: 764 x 766 km, 98.1° (Epoch: 18 June)

Event Time Altitude Azimuth Distance (km) Brightness Sun altitude
Rises 18:37:52 0° 186° (S) 3,263 6.2 -15.6°
Reaches altitude 10° 18:40:39 10° 200° (SSW) 2,329 5.6 -16.2°
Maximum altitude 18:44:29 22° 249° (WSW) 1,652 5.4 -17.0°
Drops below altitude 10° 18:48:18 10° 298° (WNW) 2,308 6.6 -17.8°
Sets 18:51:04 0° 312° (NW) 3,226 7.2 -18.4°
